Regional Weather Roundup
Issued by NWS Sterling, VA

Home | Current Version | Previous Version | Text Only | Print | Product List | Glossary Off
Versions: 1 2 3 4 5 6 7 8 9 10 11 12 13 14 15 16 17 18 19 20 21 22 23 24 25 26 27 28 29 30 31 32 33 34 35 36 37 38 39 40 41 42 43 44 45 46 47 48 49 50

000
ASUS41 KLWX 011910
RWRLWX

REGIONAL WEATHER ROUNDUP
NATIONAL WEATHER SERVICE BALTIMORE MD/WASHINGTON DC
300 PM EDT MON JUN 01 2015

Note: "FAIR" indicates few or no clouds below 12,000 feet
with no significant weather and/or obstructions to visibility.
 TC=TEMPERATURE CELSIUS

 * =Non NWS site. Station does not report precipitation (e.g. rain,
    snow, etc.), thunder, or fog.

DCZ001-MDZ009-015-VAZ040>042-051-053>054-012000-
WASHINGTON METRO

CITY           SKY/WX    TMP DP  RH WIND       PRES   REMARKS
WASHINGTON NAT MOSUNNY   91  66  43 S9        29.96F HX  93
DULLES         PTSUNNY   82  65  56 N9        29.97F
ANDREWS AFB    MOSUNNY   88  67  50 VRB6      29.96F HX  90
FT BELVOIR     SUNNY     89  67  48 SW7       29.96F HX  91
QUANTICO       MOSUNNY   78  69  73 S10       29.96F
COLLEGE PARK*  MOSUNNY   88  63  42 S3        29.95F
LEESBURG*      DRIZZLE   81  72  74 N3        29.98F
MANASSAS*      PTSUNNY   86  66  51 SW6       29.96F
GAITHERSBURG*  PTSUNNY   79  68  69 CALM      30.01F

$$

MDZ006>007-011-014-012000-
BALTIMORE METRO

CITY           SKY/WX    TMP DP  RH WIND       PRES   REMARKS
BWI AIRPORT    PTSUNNY   78  72  81 CALM      29.96F
MD SCIENCE CTR   N/A     81  69  67 MISG      29.97F
MARTIN STATE   MOSUNNY   81  73  78 SE9       29.98F
ANNAPOLIS      MOSUNNY   82  68  62 SE14      29.96F
FORT MEADE*    PTSUNNY   82  68  61 CALM      29.98F

$$

MDZ012-015-019>023-012000-
MARYLAND EASTERN SHORE

CITY           SKY/WX    TMP DP  RH WIND       PRES   REMARKS
OCEAN CITY     SUNNY     76  68  76 S10G22    30.02F
SALISBURY      MOSUNNY   89  66  46 S16       29.99F HX  91
BAY BRIDGE AP*   N/A    N/A N/A N/A SE7       29.97F
CAMBRIDGE*     SUNNY     86  66  51 S7        29.97F
EASTON*        PTSUNNY   88  68  51 SW12      30.01F HX  91

$$

MDZ017>025-012000-
SOUTHERN MARYLAND

CITY           SKY/WX    TMP DP  RH WIND       PRES   REMARKS
PATUXENT RIVER PTSUNNY   83  70  64 SE15      29.98F
ST INIGOES       N/A     88  71  57 SE8G17    29.97F HX  94
LEONARDTOWN*   CLOUDY    77  68  73 S8        30.01R

$$

MDZ003>005-012000-
NORTH CENTRAL MARYLAND

CITY           SKY/WX    TMP DP  RH WIND       PRES   REMARKS
FREDERICK*     TSTM      75  72  88 VRB3      30.02
HAGERSTOWN APT PTSUNNY   83  64  52 W8        29.98F
WESTMINSTER*   LGT RAIN  82  73  74 NW7       30.00S

$$

MDZ501>502-012000-
WESTERN MARYLAND

CITY           SKY/WX    TMP DP  RH WIND       PRES   REMARKS
OAKLAND*       CLOUDY    61 N/A N/A N5        30.11F HAZE
CUMBERLAND*    PTSUNNY   82  63  51 CALM      30.03F

$$

VAZ025>031-012000-
SHENANDOAH VALLEY

CITY           SKY/WX    TMP DP  RH WIND       PRES   REMARKS
WINCHESTER*    PTSUNNY   84  70  61 NE5       29.99F
FRONT ROYAL*   MOCLDY    82  70  65 NE3       29.97F
LURAY*         MOCLDY    88  64  45 S7        29.98F
NEW MARKET*    MOCLDY    87  64  45 S6        29.95F
STAUNTON*      MOSUNNY   88  61  39 SW9       30.02F
WAYNESBORO*    MOCLDY    81  62  53 S9        30.02F

$$

WVZ021-048>050-054>055-012000-
EASTERN WEST VIRGINIA PANHANDLE

CITY           SKY/WX    TMP DP  RH WIND       PRES   REMARKS
MARTINSBURG    PTSUNNY   80  67  64 SE5       29.99F
PETERSBURG*    PTSUNNY   73  63  71 CALM      30.01S

$$

VAZ036>039-050-012000-
CENTRAL FOOTHILLS

CITY           SKY/WX    TMP DP  RH WIND       PRES   REMARKS
CHARLOTTESVILL LGT RAIN  75  65  70 CALM      29.99S
CULPEPER*      PTSUNNY   87  66  49 SW6       29.96F HX  90
ORANGE*        MOSUNNY   90  64  43 S3        29.98F HX  91
GORDONSVILLE*  FAIR      86  65  49 S6        29.96F
WARRENTON*     CLOUDY    86  68  54 NW5       29.97F

$$

VAZ055>057-012000-
NORTH AND CENTRAL PIEDMONT

CITY           SKY/WX    TMP DP  RH WIND       PRES   REMARKS
FREDERICKSBRG* MOSUNNY   91  66  43 SW7       29.96F HX  93
STAFFORD*      PTSUNNY   86  64  47 SW5       30.00F

$$

NCZ024-NYZ072-PAZ021-071-VAZ022-071-012000-
OTHER REGIONAL OBSERVATIONS

CITY           SKY/WX    TMP DP  RH WIND       PRES   REMARKS
NEW YORK CITY  CLOUDY    56  52  86 E16G25    30.13F FOG
PHILADELPHIA   PTSUNNY   76  66  71 NE14G21   30.01F
PITTSBURGH     CLOUDY    55  47  74 N8        30.13S
ROANOKE        PTSUNNY   74  66  76 CALM      30.05F
RICHMOND       PTSUNNY   90  67  46 S7        29.97F HX  93
RALEIGH        MOSUNNY   89  67  47 SW10      30.01F HX  92

$$

ANZ530>537-012000-
MARINE OBSERVATIONS

STATION/POSITION TIME  TEMP    WIND        PRES
                       AIR SEA DIR/SP/G
                 (UTC) (F)     (DEG/KT/KT) (MB)
THOMAS PT LIGHT  1900   78 73  160/  8/  8 1015.2F
BALT KEY BRIDGE  1800   78     110/ 13/ 15 1015.1F
COVE POINT       1800   74     180/ 12/ 14 1016.8F
LEWISETTA        1800   85 72              1015.4F
SOLOMONS ISLAND  1800      73                N/A
PINEY POINT      1800          120/  6/  6   N/A

$$



USA.gov is the U.S. government's official web portal to all federal, state and local government web resources and services.